This is the latest recevied weather packets stored in our database for station/object N5VIS. If no packets are shown the sender has not sent any weather packets the latest 10 day(s).
| Time | Temp. | Humidity | Pressure | Rain* | Wind** | Luminosity | Snow |
|---|---|---|---|---|---|---|---|
| 1778006427 | 24.44° C | 77% | 1015.9 hPa | 0 mm | - | - | - |
| 1778006124 | 23.33° C | 79% | 1016 hPa | 0 mm | - | - | - |
| 1778005822 | 23.33° C | 79% | 1016.1 hPa | 0 mm | - | - | - |
| 1778005518 | 23.33° C | 79% | 1016 hPa | 0 mm | - | - | - |
| 1778005214 | 23.33° C | 78% | 1015.9 hPa | 0 mm | - | - | - |
| 1778004911 | 23.33° C | 78% | 1015.7 hPa | 0 mm | - | - | - |
| 1778004609 | 24.44° C | 77% | 1015.8 hPa | 0 mm | - | - | - |
| 1778004304 | 23.89° C | 78% | 1015.9 hPa | 0 mm | - | - | - |
| 1778004001 | 24.44° C | 77% | 1015.9 hPa | 0 mm | - | - | - |
| 1778003697 | 24.44° C | 78% | 1015.8 hPa | 0 mm | - | - | - |
| 1778003394 | 23.89° C | 78% | 1015.8 hPa | 0 mm | - | - | - |
| 1778003091 | 24.44° C | 77% | 1015.7 hPa | 0 mm | - | - | - |
| 1778002787 | 24.44° C | 77% | 1015.7 hPa | 0 mm | - | - | - |
| 1778002484 | 23.89° C | 79% | 1015.8 hPa | 0 mm | - | - | - |
| 1778002181 | 23.89° C | 79% | 1015.7 hPa | 0 mm | - | - | - |
| 1778001879 | 23.89° C | 80% | 1015.8 hPa | 0 mm | - | - | - |
| 1778001578 | 23.89° C | 79% | 1015.9 hPa | 0 mm | - | - | - |
| 1778001276 | 23.33° C | 80% | 1015.9 hPa | 0 mm | - | - | - |
| 1778000972 | 23.89° C | 80% | 1015.8 hPa | 0 mm | - | - | - |
| 1778000669 | 23.89° C | 80% | 1016 hPa | 0 mm | - | - | - |
| 1778000364 | 23.33° C | 80% | 1016 hPa | 0 mm | - | - | - |
| 1778000060 | 23.89° C | 80% | 1016 hPa | 0 mm | - | - | - |
| 1777999756 | 23.89° C | 79% | 1016.3 hPa | 0 mm | - | - | - |
| 1777999453 | 23.89° C | 79% | 1016.1 hPa | 0 mm | - | - | - |
| 1777999151 | 23.89° C | 78% | 1016.1 hPa | 0 mm | - | - | - |
* Rain latest hour (hover to see other rain measurements)
** Current wind speed in m/s (hover to see current wind gust speed)